Regional Weather Roundup
Issued by NWS

Home | Current Version | Previous Version | Text Only | Print | Product List | Glossary Off
Versions: 1 2 3 4 5 6 7 8 9 10 11 12 13 14 15 16 17 18 19 20 21 22 23 24 25 26 27 28 29 30 31 32 33 34 35 36 37 38 39 40 41 42 43 44 45 46 47 48 49 50

000
ASUS43 KFSD 292302
RWRSD

WEATHER ROUNDUP FOR SOUTH DAKOTA
NATIONAL WEATHER SERVICE SIOUX FALLS SD
600 PM CDT FRI APR 29 2016

NOTE: "FAIR" INDICATES FEW OR NO CLOUDS BELOW 12,000 FEET WITH NO
SIGNIFICANT WEATHER AND/OR OBSTRUCTIONS TO VISIBILITY.


SDZ001>005-009-010-012>017-300000-
NORTHWEST AND NORTH CENTRAL SOUTH DAKOTA

CITY           SKY/WX    TMP DP  RH WIND       PRES   REMARKS
BUFFALO          N/A     51  32  48 E9        29.99F
FAITH            N/A     50  33  52 SE13      30.05F
MOBRIDGE       PTSUNNY   58  38  47 SE13      30.05S
$$

SDZ012>016-024>037-041>051-057-063-072>074-300000-
SOUTHWEST AND SOUTH CENTRAL SOUTH DAKOTA

CITY           SKY/WX    TMP DP  RH WIND       PRES   REMARKS
RAPID CTY ARPT CLOUDY    45  34  65 E12       30.04S
PIERRE         CLOUDY    50  38  63 SE13      30.05F
CUSTER         FOG       32  30  92 NE13G22   29.98F VSB 1/2 WCI  22
ELLSWORTH AFB  CLOUDY    45  35  69 E8        30.03F
PHILIP         CLOUDY    46  37  71 E12       30.04F
PINE RIDGE     CLOUDY    41  34  76 E12       29.99F
WINNER         CLOUDY    46  38  73 E14       30.02F
$$

SDZ004>011-016>023-039-040-300000-
NORTHEAST SOUTH DAKOTA

CITY           SKY/WX    TMP DP  RH WIND       PRES   REMARKS
ABERDEEN       CLOUDY    57  38  48 SE15      30.09F
WATERTOWN      CLOUDY    51  38  60 E7        30.10F
BROOKINGS      CLOUDY    49  39  68 E8        30.09F
SISSETON         N/A     58  37  45 S8        30.10S
$$

SDZ017-020-022-023-036>040-048>070-300000-
SOUTHEAST SOUTH DAKOTA

CITY           SKY/WX    TMP DP  RH WIND       PRES   REMARKS
SIOUX FALLS    CLOUDY    50  39  66 E12       30.07F
HURON          CLOUDY    50  38  63 E14       30.08F
MITCHELL       CLOUDY    50  40  68 E13       30.07S
YANKTON        CLOUDY    46  39  76 E10       30.05F
$$

ABBREVIATIONS USED IN REMARKS
   TC - TEMPERATURE IN CELSIUS
  WCI - WIND CHILL INDEX
   HX - HEAT INDEX
  VSB - VISIBILITY





USA.gov is the U.S. government's official web portal to all federal, state and local government web resources and services.